Regional Weather Roundup
Issued by NWS Goodland, KS

Home | Current Version | Previous Version | Graphics & Text | Print | Product List | Glossary On
Versions: 1 2 3 4 5 6 7 8 9 10 11 12 13 14 15 16 17 18 19 20 21 22 23 24 25 26 27 28 29 30 31 32 33 34 35 36 37 38 39 40 41 42 43 44 45 46 47 48 49 50
000
ASUS43 KGLD 270608
RWRGLD

GOODLAND FORECAST AREA HOURLY WEATHER ROUNDUP
NATIONAL WEATHER SERVICE GOODLAND KS
1100 PM MST MON JAN 26 2015

...OFFICIAL OBSERVATIONS...

CITY           SKY/WX    TMP DP  RH WIND       PRES   REMARKS
GOODLAND KS    CLEAR     44  30  57 SW13      30.14F
HILL CITY KS   CLEAR     41  28  60 W8        30.11R
IMPERIAL NEB   CLEAR     40  29  64 W12       30.10S
MCCOOK NEB     CLEAR     37  28  70 W10       30.09R
AKRON CO       CLEAR     46  28  49 SW13      30.16S
BURLINGTON CO  CLEAR     39  29  67 SW10      30.17S
LIMON CO       CLEAR     28  23  81 N7        30.24S
$$

...UNOFFICIAL OBSERVATIONS...

CITY           SKY/WX    TMP DP  RH WIND       PRES   REMARKS
COLBY KS       CLEAR     36  34  93 W9        30.13S
GOVE KS          N/A     34  32  92 MISG        N/A
NORTON KS      CLEAR     36  27  69 SW10      30.08S
SHARON SPRINGS   N/A     36  29  75 W8          N/A
KIT CARSON CO    N/A     35  26  69 MISG        N/A
YUMA CO          N/A     36  28  73 W6          N/A
$$



USA.gov is the U.S. government's official web portal to all federal, state and local government web resources and services.